Weather in Vancouver

Canada     49°17′04″N   123°07′00″W
temp.,
°C
wind,
m/s
gust,
m/s
humid.,
%
clouds,
%
prec.,
mm/h
press.,
hPa
HPBL,
m
24 october, sun
sun2423:00+10ene259060 1.2 1001194
02:00+9ne3587100 0.1 996108
05:00+8ne3684100 0.1 991135
08:00+9ne3683100 0.0 986121
11:00+10ene31079100 0.3 984375
14:00+10ne4991100 5.6 983470
17:00+9ne3695100 17.8 986377
20:00+9ne3787100 3.0 988255
25 october, mon
mon2523:00+9e3982100 3.8 990676
02:00+9e41081100 0.7 992766
05:00+8ene4984100 2.3 992755
08:00+7ne3790100 3.3 993479
11:00+7ne3691100 7.4 995231
14:00+8ene4986100 1.3 995579
17:00+8e3993100 6.3 996740
20:00+8ese41292100 4.2 9981137
26 october, tue
tue2623:00+8se41197100 10.1 999932
02:00+9s61293100 6.3 1002991
05:00+9sse3889100 8.0 1005421
08:00+9se3793100 2.6 1007387
11:00+10sse4789100 4.7 1008594
14:00+10sse3887100 1.9 1007823
17:00+9e2692100 2.8 1005505
20:00+8s1796100 6.1 1005530
27 october, wed
wed2723:00+9sw4108592 9.7 1008416
02:00+8sw1386100 0.4 1011107
05:00+7e1192100 0.9 101442
08:00+8ese1291100 0.1 101765
11:00+10s257795 0.4 1019662
14:00+10ssw4681100 0.9 1021781
17:00+9s258675 1.8 1022435
20:00+7ene239490 0.3 102378
28 october, thu
thu2823:00+6ne229593 0.4 102257
02:00+7ene2290100 0.1 102041
05:00+8ne2186100 0.1 101827
08:00+7nne1188100 0.1 101617
11:00+8wsw1286100 0.2 1017337
14:00+9sw128193 0.2 1016515
17:00+8sw1287100 0.3 1016154
20:00+8ene1190100 0.0 101752